Date,TemperatureHighF,TemperatureAvgF,TemperatureLowF,DewpointHighF,DewpointAvgF,DewpointLowF,HumidityHigh,HumidityAvg,HumidityLow,PressureMaxIn,PressureMinIn,WindSpeedMaxMPH,WindSpeedAvgMPH,GustSpeedMaxMPH,PrecipitationSumIn
2013-1-1,31.0,29.8,27.0,16.0,12.1,10.0,58,48,42,0.00,40.00,11,8,26,0.00
2013-1-2,28.0,24.5,22.0,15.0,13.9,12.0,75,64,57,0.00,40.00,7,5,14,0.00
2013-1-3,27.0,25.5,24.0,13.0,10.0,7.0,59,52,45,0.00,40.00,9,8,17,0.00
2013-1-4,25.0,22.1,20.0,9.0,6.6,5.0,60,51,46,0.00,40.00,8,6,15,0.00
2013-1-5,24.0,21.8,19.0,11.0,7.3,3.0,62,54,46,0.00,40.00,7,6,14,0.00
2013-1-6,23.0,21.4,18.0,11.0,8.3,3.0,63,57,49,0.00,40.00,8,6,15,0.00
2013-1-7,20.0,17.0,10.0,10.0,6.8,5.0,81,64,54,0.00,40.00,8,4,19,0.00
2013-1-8,10.0,-0.1,-3.0,6.0,-5.5,-9.0,84,78,75,0.00,40.00,7,2,13,0.00
2013-1-9,6.0,0.6,-5.0,1.0,-4.8,-11.0,81,77,73,0.00,40.00,7,3,12,0.00
2013-1-10,13.0,10.1,8.0,10.0,6.0,4.0,86,83,78,0.00,40.00,7,4,13,0.00
2013-1-11,19.0,14.7,11.0,15.0,11.4,8.0,89,85,76,0.00,40.00,8,4,14,0.00
2013-1-12,26.0,19.3,11.0,21.0,15.8,8.0,91,87,79,0.00,40.00,10,6,17,0.00
2013-1-13,33.0,30.2,27.0,31.0,27.8,20.0,97,91,75,0.00,40.00,10,6,18,0.00
2013-1-14,34.0,31.0,21.0,32.0,29.4,19.0,97,94,88,0.00,40.00,11,7,21,0.05
2013-1-15,18.0,8.9,6.0,16.0,4.9,2.0,90,84,81,0.00,40.00,9,2,21,0.04
2013-1-16,11.0,8.3,6.0,6.0,3.4,1.0,84,79,75,0.00,40.00,0,0,0,0.00
2013-1-17,8.0,-3.9,-15.0,2.0,-12.2,-99.9,76,72,66,0.00,40.00,0,0,0,0.00
2013-1-18,0.0,-5.1,-9.0,-12.0,-15.1,-18.0,66,61,56,0.00,40.00,14,5,27,0.00
2013-1-19,5.0,2.2,-1.0,-11.0,-13.0,-15.0,57,49,42,0.00,40.00,16,12,34,0.00
2013-1-20,9.0,4.8,-2.0,4.0,-2.6,-13.0,81,72,45,0.00,40.00,10,5,24,0.00
2013-1-21,5.0,3.5,2.0,1.0,-3.4,-6.0,82,72,66,0.00,40.00,11,8,23,0.00
2013-1-22,8.0,5.5,3.0,1.0,-2.2,-5.0,72,70,65,0.00,40.00,15,10,28,0.00
2013-1-23,4.0,-0.2,-5.0,-4.0,-9.8,-16.0,70,63,57,0.00,40.00,14,11,30,0.00
2013-1-24,-5.0,-11.2,-19.0,-16.0,-22.6,-28.0,62,56,48,0.00,40.00,9,4,26,0.00
2013-1-25,-9.0,-14.0,-18.0,-25.0,-27.6,-30.0,64,50,44,0.00,40.00,6,3,15,0.00
2013-1-26,-15.0,-17.8,-22.0,-24.0,-27.5,-31.0,65,60,53,0.00,40.00,5,2,12,0.00
2013-1-27,-12.0,-19.1,-21.0,-28.0,-32.2,-35.0,59,50,40,0.00,40.00,7,3,13,0.00
2013-1-28,-5.0,-13.4,-21.0,-23.0,-28.9,-36.0,49,44,37,0.00,40.00,16,6,29,0.00
2013-1-29,-4.0,-8.6,-11.0,-19.0,-26.0,-28.0,49,42,35,0.00,40.00,10,6,23,0.00
2013-1-30,21.0,5.7,-5.0,18.0,-2.9,-20.0,89,67,44,0.00,40.00,9,6,18,0.00
2013-1-31,10.0,6.9,4.0,6.0,2.5,-1.0,85,82,80,0.00,40.00,7,4,13,0.00
2013-2-1,12.0,7.0,3.0,6.0,1.3,-2.0,82,78,62,0.00,40.00,14,6,25,0.00
2013-2-2,25.0,17.3,9.0,12.0,3.2,-2.0,64,54,44,0.00,40.00,15,8,26,0.00
2013-2-3,27.0,22.0,16.0,15.0,13.0,11.0,82,68,57,0.00,40.00,5,2,11,0.01
2013-2-4,21.0,17.4,15.0,19.0,14.6,12.0,92,89,86,0.00,40.00,6,2,9,0.01
2013-2-5,21.0,14.5,5.0,18.0,11.4,-2.0,91,87,73,0.00,40.00,6,2,13,0.00
2013-2-6,1.0,-4.0,-7.0,-4.0,-9.8,-14.0,79,75,72,0.00,40.00,5,3,11,0.00
2013-2-7,16.0,9.5,0.0,13.0,4.7,-5.0,88,80,75,0.00,40.00,7,6,14,0.00
2013-2-8,16.0,10.0,3.0,13.0,6.0,-1.0,88,84,78,0.00,40.00,6,4,13,0.00
2013-2-9,29.0,21.8,11.0,18.0,14.4,8.0,87,73,62,0.00,40.00,13,9,26,0.00
2013-2-10,33.0,25.2,10.0,23.0,17.9,6.0,89,74,63,0.00,40.00,11,7,18,0.00
2013-2-11,18.0,12.8,8.0,15.0,9.2,4.0,89,86,83,0.00,40.00,5,2,10,0.00
2013-2-12,16.0,12.1,8.0,13.0,8.6,4.0,87,85,84,0.00,40.00,6,3,10,0.00
2013-2-13,26.0,18.0,13.0,14.0,10.5,9.0,86,73,60,0.00,40.00,7,6,13,0.00
2013-2-14,27.0,22.4,20.0,9.0,7.0,5.0,61,51,42,0.00,40.00,11,7,21,0.00
2013-2-15,20.0,2.8,-10.0,16.0,-2.5,-17.0,89,78,70,0.00,40.00,8,5,16,0.00
2013-2-16,-1.0,-5.9,-11.0,-7.0,-12.3,-18.0,75,72,70,0.00,40.00,6,4,11,0.00
2013-2-17,5.0,-4.0,-14.0,0.0,-10.2,-21.0,81,74,68,0.00,40.00,9,4,17,0.00
2013-2-18,-9.0,-15.8,-21.0,-18.0,-24.1,-30.0,67,65,63,0.00,40.00,7,3,17,0.00
2013-2-19,-6.0,-11.0,-16.0,-15.0,-20.5,-25.0,65,62,56,0.00,40.00,11,8,24,0.00
2013-2-20,2.0,-5.8,-9.0,-12.0,-15.9,-20.0,66,61,50,0.00,40.00,15,10,28,0.00
2013-2-21,-7.0,-8.3,-10.0,-14.0,-16.8,-18.0,69,65,59,0.00,40.00,11,8,23,0.00
2013-2-22,-8.0,-14.2,-20.0,-17.0,-22.3,-28.0,70,66,59,0.00,40.00,7,3,16,0.00
2013-2-23,10.0,-2.0,-11.0,2.0,-10.3,-19.0,74,66,62,0.00,40.00,8,3,15,0.00
2013-2-24,20.0,12.4,8.0,4.0,2.1,1.0,73,63,47,0.00,40.00,7,4,13,0.00
2013-2-25,30.0,20.6,14.0,8.0,5.7,3.0,65,53,39,0.00,40.00,7,6,14,0.10
2013-2-26,26.0,20.1,16.0,4.0,0.6,-3.0,55,43,29,0.00,40.00,10,6,19,0.01
2013-2-27,28.0,21.4,17.0,7.0,4.9,3.0,56,49,40,0.00,40.00,10,8,20,0.00
2013-2-28,35.0,23.7,20.0,6.0,3.9,2.0,49,43,29,0.00,40.00,8,4,14,0.10
2013-3-1,21.0,8.6,3.0,7.0,0.4,-3.0,81,70,46,0.00,40.00,5,2,8,0.01
2013-3-2,18.0,9.3,1.0,9.0,3.5,-4.0,82,77,67,0.00,40.00,5,3,9,0.00
2013-3-3,30.0,19.7,14.0,12.0,8.6,6.0,78,63,46,0.00,40.00,6,4,11,0.07
2013-3-4,31.0,22.8,16.0,9.0,6.8,4.0,64,51,38,0.00,40.00,6,4,11,0.11
2013-3-5,34.0,25.5,21.0,5.0,2.9,-1.0,46,38,29,0.00,40.00,5,3,10,0.14
2013-3-6,29.0,20.6,14.0,5.0,0.9,-3.0,63,43,30,0.00,40.00,6,4,10,0.01
2013-3-7,37.0,26.9,16.0,13.0,10.2,5.0,62,50,36,0.00,40.00,14,9,24,0.01
2013-3-8,42.0,32.7,29.0,17.0,14.3,11.0,59,47,36,0.00,40.00,9,6,17,0.01
2013-3-9,38.0,28.2,21.0,22.0,18.4,12.0,92,68,44,0.00,40.00,8,4,14,0.00
2013-3-10,24.0,16.7,10.0,18.0,9.0,3.0,92,73,42,0.00,40.00,7,4,14,0.00
2013-3-11,23.0,14.3,9.0,9.0,-0.2,-99.9,79,62,31,0.00,40.00,7,4,14,0.00
2013-3-12,23.0,12.4,6.0,-4.0,-12.1,-99.9,58,38,22,0.00,40.00,8,4,16,0.00
2013-3-13,12.0,4.3,-11.0,-7.0,-16.2,-25.0,50,38,30,0.00,40.00,12,7,28,0.00
2013-3-14,9.0,-3.2,-15.0,-16.0,-22.1,-29.0,48,40,30,0.00,40.00,12,10,30,0.00
2013-3-15,18.0,5.6,-1.0,-15.0,-19.5,-23.0,38,30,21,0.00,40.00,12,9,25,0.00
2013-3-16,21.0,9.8,2.0,-4.0,-11.3,-18.0,46,38,29,0.00,40.00,8,6,18,0.00
2013-3-17,23.0,11.6,5.0,-4.0,-7.3,-11.0,53,42,29,0.00,40.00,5,2,9,0.00
2013-3-18,19.0,8.8,3.0,-6.0,-9.8,-15.0,53,43,31,0.00,40.00,7,4,14,0.00
2013-3-19,13.0,4.4,-3.0,-10.0,-12.7,-18.0,56,45,32,0.00,40.00,7,5,17,0.00
2013-3-20,9.0,0.1,-7.0,-5.0,-11.4,-15.0,78,59,40,0.00,40.00,4,2,11,0.00
2013-3-21,12.0,4.8,-2.0,7.0,-0.8,-8.0,82,77,72,0.00,40.00,5,4,13,0.00
2013-3-22,24.0,15.4,7.0,13.0,-0.2,-5.0,78,51,37,0.00,40.00,10,8,19,0.00
2013-3-23,12.0,-3.6,-12.0,8.0,-11.1,-20.0,84,70,63,0.00,40.00,14,6,23,0.00
2013-3-24,14.0,2.2,-8.0,0.0,-7.8,-15.0,76,63,45,0.00,40.00,7,5,13,0.00
2013-3-25,4.0,-1.9,-6.0,-3.0,-8.2,-12.0,76,73,71,0.00,40.00,8,4,16,0.00
2013-3-26,0.0,-7.6,-12.0,-9.0,-15.4,-20.0,73,68,62,0.00,40.00,8,5,18,0.00
2013-3-27,5.0,-5.3,-15.0,-7.0,-14.3,-22.0,70,64,56,0.00,40.00,5,3,11,0.00
2013-3-28,25.0,12.6,-1.0,2.0,-3.8,-9.0,67,49,32,0.00,40.00,6,5,13,0.07
2013-3-29,37.0,26.4,18.0,10.0,6.9,2.0,53,44,33,0.00,40.00,7,5,11,0.11
2013-3-30,38.0,28.8,22.0,16.0,10.7,-99.9,67,50,36,0.00,40.00,5,3,10,0.02
2013-3-31,41.0,28.5,23.0,25.0,19.4,14.0,91,69,50,0.00,40.00,4,2,10,0.02
2013-4-1,33.0,25.1,18.0,22.0,17.3,10.0,93,74,50,0.00,40.00,7,4,14,0.03
2013-4-2,25.0,19.4,14.0,10.0,7.4,3.0,72,60,46,0.00,40.00,10,6,20,0.03
2013-4-3,24.0,14.5,9.0,3.0,-0.8,-9.0,63,52,31,0.00,40.00,12,10,26,0.00
2013-4-4,25.0,14.0,7.0,-5.0,-8.6,-14.0,52,37,23,0.00,40.00,14,10,28,0.00
2013-4-5,13.0,4.3,-5.0,-6.0,-14.0,-19.0,54,42,31,0.00,40.00,14,10,36,0.00
2013-4-6,10.0,1.2,-5.0,-10.0,-14.5,-19.0,65,47,37,0.00,40.00,13,8,24,0.00
2013-4-7,4.0,-0.7,-4.0,-4.0,-7.9,-10.0,76,71,61,0.00,40.00,8,4,19,0.00
2013-4-8,10.0,1.2,-8.0,1.0,-5.3,-14.0,79,73,66,0.00,40.00,5,3,11,0.00
2013-4-9,7.0,3.8,0.0,0.0,-1.7,-5.0,80,77,73,0.00,40.00,10,4,20,0.00
2013-4-10,10.0,0.8,-5.0,1.0,-6.8,-11.0,77,70,61,0.00,40.00,8,6,18,0.00
2013-4-11,9.0,1.7,-5.0,-1.0,-6.5,-12.0,77,68,56,0.00,40.00,7,4,14,0.00
2013-4-12,19.0,8.8,-1.0,2.0,-3.9,-8.0,75,58,39,0.00,40.00,5,3,10,0.00
2013-4-13,27.0,14.1,4.0,-1.0,-5.7,-8.0,58,42,29,0.00,40.00,5,3,11,0.08
2013-4-14,21.0,15.7,11.0,15.0,5.7,-6.0,87,65,43,0.00,40.00,7,4,14,0.02
2013-4-15,26.0,16.9,13.0,9.0,1.3,-2.0,83,52,33,0.00,40.00,10,7,23,0.03
2013-4-16,23.0,16.2,10.0,3.0,0.1,-3.0,60,49,38,0.00,40.00,10,6,20,0.01
2013-4-17,27.0,17.8,9.0,4.0,1.9,0.0,66,51,37,0.00,40.00,9,4,22,0.00
2013-4-18,29.0,17.8,12.0,0.0,-3.2,-7.0,50,40,24,0.00,40.00,7,5,16,0.00
2013-4-19,37.0,24.6,12.0,7.0,2.1,-1.0,58,39,24,0.00,40.00,6,4,14,0.04
2013-4-20,44.0,30.7,19.0,7.0,2.3,-3.0,44,31,20,0.00,40.00,7,4,14,0.02
2013-4-21,43.0,31.4,22.0,8.0,3.7,0.0,44,32,20,0.00,40.00,5,2,11,0.00
2013-4-22,45.0,34.1,24.0,8.0,3.3,0.0,36,27,19,0.00,40.00,6,4,16,0.00
2013-4-23,44.0,34.4,26.0,11.0,9.0,5.0,45,35,24,0.00,40.00,10,5,23,0.00
2013-4-24,31.0,27.2,23.0,25.0,18.9,9.0,94,73,43,0.00,40.00,13,9,27,0.01
2013-4-25,28.0,19.8,9.0,6.0,-8.5,-99.9,59,32,22,0.00,40.00,6,4,16,0.01
2013-4-26,31.0,19.8,11.0,16.0,5.0,-8.0,88,54,39,0.00,40.00,5,3,13,0.00
2013-4-27,25.0,18.4,9.0,14.0,-1.3,-16.0,88,46,20,0.00,40.00,7,5,16,0.00
2013-4-28,32.0,19.6,6.0,9.0,-4.0,-15.0,53,35,26,0.00,40.00,10,5,18,0.00
2013-4-29,27.0,22.4,18.0,20.0,14.9,7.0,91,73,55,0.00,40.00,7,4,14,0.01
2013-4-30,31.0,23.7,17.0,24.0,19.8,14.0,93,85,74,0.00,40.00,9,4,20,0.15
2013-5-1,28.0,19.7,14.0,18.0,11.8,5.0,85,72,54,0.00,40.00,10,7,20,0.16
2013-5-2,33.0,21.6,10.0,12.0,8.4,5.0,80,58,40,0.00,40.00,8,4,16,0.05
2013-5-3,31.0,24.0,17.0,23.0,17.3,11.0,90,75,60,0.00,40.00,8,6,19,0.04
2013-5-4,32.0,22.4,16.0,22.0,14.3,5.0,88,73,42,0.00,40.00,7,4,17,0.08
2013-5-5,37.0,27.6,18.0,14.0,7.5,3.0,75,46,27,0.00,40.00,7,4,17,0.02
2013-5-6,42.0,30.5,20.0,11.0,7.0,2.0,49,38,27,0.00,40.00,7,4,16,0.01
2013-5-7,44.0,32.7,23.0,15.0,11.9,9.0,57,43,28,0.00,40.00,7,4,17,0.00
2013-5-8,47.0,36.7,26.0,20.0,13.6,10.0,60,40,28,0.00,40.00,8,4,19,0.00
2013-5-9,53.0,42.0,30.0,19.0,16.8,15.0,60,39,23,0.00,40.00,6,4,14,0.00
2013-5-10,58.0,46.4,39.0,21.0,16.8,-99.9,42,32,23,0.00,40.00,5,3,11,0.00
2013-5-11,54.0,45.9,38.0,24.0,17.6,-99.9,56,34,25,0.00,40.00,8,3,16,0.00
2013-5-12,50.0,39.6,30.0,30.0,25.1,20.0,90,58,34,0.00,40.00,9,4,21,0.00
2013-5-13,30.0,22.2,11.0,22.0,0.1,-99.9,83,45,33,29.50,29.47,10,6,18,0.00
2013-5-14,40.0,28.3,14.0,10.0,7.3,4.0,66,43,28,29.52,29.50,4,2,11,0.00
2013-5-15,44.0,34.2,23.0,13.0,9.2,5.0,49,36,23,29.57,29.53,7,3,16,0.00
2013-5-16,47.0,33.8,26.0,27.0,-0.0,-99.9,71,45,27,29.55,29.36,9,5,21,0.00
2013-5-17,35.0,29.2,20.0,29.0,19.9,-99.9,93,85,72,29.50,29.30,9,6,18,0.09
2013-5-18,28.0,19.3,11.0,17.0,8.7,3.0,90,66,37,29.99,29.50,9,7,19,0.14
2013-5-19,42.0,27.9,13.0,10.0,5.2,0.0,59,40,27,30.44,30.02,8,5,18,0.02
2013-5-20,49.0,39.4,28.0,14.0,10.7,8.0,45,32,21,30.49,30.35,5,3,14,0.00
2013-5-21,55.0,45.2,32.0,17.0,13.3,10.0,44,29,18,30.35,30.10,7,4,15,0.00
2013-5-22,63.0,51.5,41.0,23.0,19.2,17.0,42,29,19,30.09,29.93,7,5,15,0.00
2013-5-23,57.0,49.0,43.0,36.0,29.5,22.0,62,47,34,30.06,29.95,6,4,13,0.00
2013-5-24,62.0,52.8,42.0,37.0,33.2,28.0,74,50,32,30.08,29.97,6,3,13,0.00
2013-5-25,70.0,58.9,47.0,30.0,25.9,19.0,44,30,16,29.96,29.82,8,4,16,0.00
2013-5-26,74.0,62.5,50.0,29.0,25.7,21.0,37,26,17,29.84,29.79,6,3,15,0.00
2013-5-27,75.0,64.5,54.0,35.0,31.7,28.0,39,30,22,29.86,29.78,6,4,16,0.00
2013-5-28,76.0,65.2,57.0,36.0,30.2,25.0,33,27,20,29.78,29.70,8,4,16,0.01
2013-5-29,74.0,66.2,57.0,31.0,28.1,26.0,34,25,17,29.72,29.69,8,6,17,0.01
2013-5-30,77.0,66.6,59.0,42.0,33.8,30.0,51,30,20,29.86,29.73,10,4,23,0.05
2013-5-31,77.0,63.6,57.0,41.0,23.0,-99.9,44,30,11,29.97,29.87,9,5,19,0.01
2013-6-1,71.0,61.0,52.0,38.0,30.8,23.0,44,33,25,30.08,29.98,8,5,18,0.00
2013-6-2,71.0,61.3,50.0,43.0,34.5,26.0,63,39,23,30.05,29.87,9,6,18,0.00
2013-6-3,58.0,51.9,46.0,46.0,43.3,41.0,98,74,56,29.88,29.62,10,5,24,0.01
2013-6-4,55.0,48.0,44.0,45.0,43.3,41.0,97,85,63,29.61,29.50,8,5,18,0.04
2013-6-5,48.0,44.4,42.0,46.0,42.9,41.0,98,95,86,29.79,29.55,8,6,21,0.49
2013-6-6,56.0,48.9,43.0,47.0,42.5,39.0,97,80,54,29.81,29.76,6,4,16,0.19
2013-6-7,64.0,53.9,46.0,45.0,39.7,38.0,87,60,40,29.90,29.78,7,3,16,0.13
2013-6-8,67.0,57.9,49.0,43.0,37.5,32.0,66,48,31,30.08,29.92,8,5,17,0.02
2013-6-9,57.0,52.0,46.0,42.0,37.3,32.0,75,58,44,30.16,30.09,10,6,19,0.01
2013-6-10,56.0,46.6,41.0,42.0,39.3,37.0,96,76,52,30.19,30.16,8,7,20,0.00
2013-6-11,63.0,51.0,39.0,39.0,36.1,28.0,93,61,32,30.20,30.11,7,4,18,0.00
2013-6-12,65.0,56.7,45.0,31.0,28.8,27.0,50,36,25,30.12,30.05,7,5,17,0.00
2013-6-13,72.0,61.3,48.0,32.0,27.1,18.0,53,31,13,30.12,30.08,6,4,15,0.00
2013-6-14,78.0,67.4,55.0,37.0,30.5,22.0,42,27,13,30.18,30.11,6,3,13,0.00
2013-6-15,79.0,69.2,60.0,42.0,34.7,25.0,39,28,22,30.24,30.18,8,4,18,0.00
2013-6-16,81.0,69.9,62.0,50.0,45.8,42.0,50,43,32,30.26,30.19,10,6,21,0.00
2013-6-17,81.0,70.8,60.0,50.0,34.7,23.0,58,30,12,30.24,30.15,9,6,21,0.00
2013-6-18,83.0,70.7,57.0,37.0,34.3,32.0,41,28,17,30.14,29.93,11,7,21,0.03
2013-6-19,81.0,71.4,59.0,39.0,36.9,36.0,44,30,20,29.94,29.84,9,6,21,0.03
2013-6-20,75.0,65.6,59.0,43.0,38.2,35.0,45,37,30,29.92,29.86,5,3,12,0.00
2013-6-22,70.0,63.7,49.0,46.0,39.8,36.0,83,43,31,29.84,29.72,6,3,16,0.01
2013-6-23,76.0,65.9,56.0,47.0,39.5,35.0,55,39,24,29.72,29.63,7,4,17,0.01
2013-6-24,81.0,71.0,60.0,45.0,40.7,38.0,48,35,23,29.68,29.65,7,5,17,0.01
2013-6-25,85.0,74.0,63.0,49.0,47.2,44.0,60,41,27,29.71,29.68,9,6,19,0.00
2013-6-26,87.0,74.5,62.0,48.0,46.2,42.0,58,39,23,29.76,29.71,9,6,18,0.00
2013-6-27,77.0,67.5,60.0,59.0,53.0,45.0,85,61,40,29.98,29.77,9,5,18,0.02
2013-6-28,76.0,65.6,56.0,54.0,50.1,45.0,89,61,38,30.04,29.99,7,5,15,0.02
2013-6-29,75.0,65.0,56.0,54.0,48.8,44.0,78,57,34,30.00,29.92,6,2,12,0.00
2013-6-30,80.0,67.9,58.0,51.0,48.3,42.0,70,51,34,29.92,29.65,8,5,17,0.00
2013-7-1,69.0,59.7,50.0,49.0,44.8,41.0,92,60,40,29.65,29.47,10,3,19,0.16
2013-7-2,65.0,55.9,47.0,42.0,38.8,35.0,79,54,38,29.69,29.51,8,4,19,0.17
2013-7-3,63.0,53.9,44.0,42.0,37.9,34.0,86,57,38,29.89,29.70,5,3,13,0.01
2013-7-4,62.0,52.7,43.0,43.0,36.5,33.0,93,56,35,29.95,29.85,8,4,21,0.04
2013-7-5,59.0,50.1,41.0,45.0,40.8,37.0,95,72,47,30.00,29.94,5,2,14,0.10
2013-7-6,67.0,55.7,46.0,42.0,37.9,36.0,70,53,33,29.94,29.76,7,4,15,0.02
2013-7-7,68.0,57.0,51.0,42.0,39.0,35.0,66,51,37,29.74,29.52,9,4,19,0.00
2013-7-8,57.0,49.1,46.0,48.0,42.8,-99.9,95,83,63,29.67,29.54,8,4,15,0.14
2013-7-9,59.0,50.4,45.0,50.0,46.6,44.0,97,88,59,29.95,29.68,7,5,19,0.25
2013-7-10,53.0,46.6,42.0,47.0,41.6,-99.9,98,89,78,30.00,29.94,9,6,20,0.31
2013-7-11,64.0,54.5,45.0,47.0,44.3,41.0,97,71,54,30.05,30.00,7,4,15,0.01
2013-7-12,75.0,61.3,48.0,41.0,35.7,27.0,71,43,17,30.06,29.99,7,5,17,0.00
2013-7-13,81.0,68.0,53.0,39.0,35.9,32.0,50,33,19,30.03,30.00,8,4,14,0.00
2013-7-14,83.0,71.6,61.0,47.0,39.3,29.0,43,32,22,30.13,30.04,8,4,19,0.00
2013-7-15,75.0,65.4,60.0,50.0,47.2,42.0,65,52,38,30.19,30.12,7,4,15,0.00
2013-7-16,60.0,55.8,52.0,53.0,49.5,46.0,90,80,68,30.14,30.09,7,5,14,0.00
2013-7-17,65.0,55.7,49.0,51.0,47.5,44.0,96,76,52,30.09,30.03,7,5,17,0.00
2013-7-18,69.0,57.1,48.0,51.0,46.0,43.0,96,69,43,30.11,30.02,5,3,11,0.10
2013-7-19,54.0,52.3,49.0,53.0,51.3,48.0,98,97,96,30.06,30.03,10,6,26,0.76
2013-7-20,52.0,48.6,47.0,51.0,46.6,-99.9,99,96,95,30.05,30.02,8,7,20,0.79
2013-7-21,60.0,52.6,47.0,50.0,47.3,46.0,98,84,61,30.14,30.05,8,4,16,0.01
2013-7-22,67.0,57.0,47.0,49.0,46.8,45.0,95,70,49,30.17,30.11,6,3,14,0.00
2013-7-23,73.0,63.2,53.0,52.0,49.1,47.0,79,61,45,30.12,30.03,7,4,20,0.00
2013-7-24,69.0,59.3,55.0,54.0,52.6,50.0,88,79,59,30.03,29.96,8,7,20,0.00
2013-7-25,69.0,59.0,51.0,51.0,44.2,36.0,91,62,30,30.05,29.97,7,5,16,0.00
2013-7-26,67.0,59.2,52.0,51.0,45.1,36.0,71,60,49,30.18,30.05,9,6,20,0.00
2013-7-27,73.0,63.1,53.0,55.0,51.6,49.0,91,68,48,30.25,30.19,6,4,16,0.00
2013-7-28,81.0,70.5,59.0,53.0,49.4,46.0,65,49,30,30.23,30.09,8,5,19,0.00
2013-7-29,72.0,64.6,57.0,54.0,50.4,47.0,80,61,43,30.13,30.09,9,7,21,0.00
2013-7-30,70.0,60.6,52.0,51.0,48.3,46.0,85,65,47,30.18,30.12,7,4,17,0.00
2013-7-31,75.0,63.9,51.0,50.0,46.6,44.0,82,56,36,30.16,30.15,7,4,16,0.00
2013-8-1,80.0,70.8,57.0,49.0,44.9,41.0,64,41,27,0.00,40.00,4,3,12,0.00
2013-8-2,78.0,69.3,63.0,47.0,43.0,40.0,49,40,28,29.87,29.77,6,4,12,0.00
2013-8-3,76.0,66.1,58.0,42.0,38.4,31.0,44,37,26,29.76,29.66,12,6,25,0.00
2013-8-4,67.0,58.9,52.0,46.0,43.5,38.0,73,57,43,29.87,29.72,8,4,20,0.00
2013-8-5,70.0,60.1,49.0,48.0,42.8,39.0,84,56,33,29.92,29.87,8,3,20,0.01
2013-8-6,75.0,64.4,53.0,44.0,38.5,35.0,58,40,25,29.95,29.84,11,5,23,0.00
2013-8-7,80.0,67.4,57.0,43.0,39.8,36.0,51,38,24,29.85,29.65,9,5,18,0.00
2013-8-8,75.0,65.1,55.0,41.0,36.8,35.0,51,36,24,29.68,29.64,7,4,18,0.00
2013-8-9,66.0,59.3,53.0,42.0,39.5,37.0,60,48,37,29.69,29.65,6,3,15,0.00
2013-8-10,60.0,54.2,49.0,49.0,44.1,40.0,80,69,52,29.96,29.69,5,3,11,0.02
2013-8-11,69.0,58.1,48.0,46.0,42.7,39.0,80,59,34,30.04,29.97,5,4,12,0.01
2013-8-12,70.0,60.1,53.0,53.0,49.8,45.0,86,69,52,30.04,29.98,7,5,16,0.00
2013-8-13,77.0,63.5,54.0,55.0,49.5,-99.9,90,64,43,30.00,29.85,4,2,8,0.00
2013-8-14,63.0,58.6,53.0,56.0,51.2,45.0,91,77,61,29.88,29.83,7,4,16,0.09
2013-8-15,63.0,51.1,51.0,52.0,36.0,-99.9,96,70,59,29.85,29.70,5,2,10,0.30
2013-8-16,60.0,52.0,49.0,57.0,46.3,-99.9,97,89,70,29.69,29.63,4,2,10,0.36
2013-8-17,64.0,54.6,49.0,52.0,46.5,-99.9,96,78,57,29.64,29.52,7,4,15,0.01
2013-8-18,64.0,53.8,47.0,51.0,46.4,42.0,97,78,54,29.54,29.50,7,4,14,0.01
2013-8-19,61.0,51.4,48.0,43.0,35.0,-99.9,80,62,49,29.61,29.54,4,2,11,0.00
2013-8-20,52.0,46.5,44.0,50.0,44.5,43.0,97,93,79,29.71,29.58,7,4,21,0.58
2013-8-21,55.0,45.6,39.0,43.0,37.8,33.0,97,77,50,29.76,29.68,5,2,11,0.02
2013-8-22,61.0,49.5,40.0,47.0,38.1,32.0,96,66,47,29.68,29.55,4,2,12,0.08
2013-8-23,50.0,46.4,43.0,47.0,43.7,36.0,98,91,73,29.65,29.47,6,4,16,1.06
2013-8-24,53.0,44.4,39.0,37.0,31.0,-99.9,80,63,45,29.87,29.66,7,5,16,0.01
2013-8-25,57.0,44.4,34.0,28.0,26.8,26.0,75,53,31,29.87,29.73,8,6,17,0.00
2013-8-26,58.0,46.5,36.0,27.0,25.7,24.0,61,46,29,29.79,29.76,10,7,20,0.00
2013-8-27,52.0,44.2,41.0,33.0,29.0,25.0,61,55,49,29.78,29.76,7,5,15,0.00
2013-8-28,51.0,46.4,42.0,44.0,40.9,38.0,97,82,61,29.67,29.64,4,2,11,0.06
2013-8-29,48.0,45.5,42.0,46.0,42.4,38.0,97,89,77,29.80,29.63,5,3,10,0.16
2013-8-30,48.0,43.4,35.0,44.0,37.7,28.0,97,82,62,29.90,29.81,7,5,17,0.03
2013-8-31,45.0,36.6,30.0,26.0,13.3,-99.9,76,50,32,29.92,29.85,4,2,10,0.01
2013-9-1,45.0,38.7,34.0,36.0,23.3,13.0,93,56,35,29.85,29.64,8,6,16,0.07
2013-9-2,51.0,45.3,39.0,49.0,43.6,37.0,97,94,89,29.61,29.40,8,6,15,0.51
2013-9-3,58.0,51.9,47.0,49.0,45.4,43.0,95,79,60,29.41,29.21,8,4,19,0.28
2013-9-4,51.0,46.4,42.0,47.0,44.4,39.0,97,93,80,29.61,29.32,5,3,12,0.38
2013-9-5,51.0,44.6,39.0,43.0,40.5,38.0,97,86,67,29.92,29.63,7,3,16,0.01
2013-9-6,51.0,44.2,40.0,42.0,38.2,36.0,95,81,58,29.95,29.45,9,5,20,0.10
2013-9-7,51.0,46.1,42.0,46.0,41.6,-99.9,96,88,80,29.63,29.45,6,3,15,0.12
2013-9-8,48.0,44.8,42.0,44.0,42.7,41.0,97,93,80,29.71,29.46,7,4,19,0.24
2013-9-9,56.0,47.2,41.0,47.0,41.5,37.0,98,82,59,29.77,29.66,7,5,14,0.14
2013-9-10,60.0,51.4,46.0,44.0,38.0,35.0,84,61,43,29.69,29.63,8,4,15,0.02
2013-9-11,51.0,46.0,43.0,44.0,40.6,37.0,98,82,60,29.70,29.54,9,4,18,0.58
2013-9-12,53.0,43.7,36.0,47.0,40.0,35.0,98,88,65,29.86,29.73,9,5,20,0.32
2013-9-13,48.0,44.6,42.0,44.0,40.2,36.0,95,85,69,29.88,29.80,4,2,8,0.08
2013-9-14,46.0,40.2,33.0,42.0,34.7,-99.9,97,84,59,30.00,29.88,6,4,13,0.21
2013-9-15,48.0,39.8,31.0,31.0,26.4,22.0,87,61,40,30.03,29.94,9,4,17,0.03
2013-9-16,48.0,38.1,31.0,24.0,20.6,18.0,63,50,34,29.92,29.64,11,9,23,0.00
2013-9-17,36.0,29.0,24.0,24.0,19.3,15.0,91,67,52,29.64,29.55,10,5,21,0.00
2013-9-18,28.0,25.4,25.0,24.0,23.2,23.0,93,92,86,29.61,29.55,2,1,6,0.07
2013-9-19,36.0,26.5,21.0,24.0,22.2,19.0,94,84,62,29.61,29.49,6,3,11,0.05
2013-9-20,30.0,25.0,20.0,24.0,21.0,17.0,94,85,70,29.48,29.10,4,2,9,0.01
2013-9-21,35.0,26.1,21.0,19.0,13.9,-99.9,83,63,43,29.12,29.03,8,4,15,0.01
2013-9-22,26.0,24.0,21.0,24.0,20.2,16.0,92,85,76,29.37,29.14,5,4,11,0.01
2013-9-23,30.0,24.2,19.0,26.0,20.9,16.0,91,87,80,29.73,29.38,5,2,10,0.09
2013-9-24,34.0,27.5,22.0,21.0,18.6,17.0,87,70,52,29.88,29.68,11,6,21,0.03
2013-9-25,46.0,38.2,31.0,33.0,27.3,18.0,88,65,52,29.65,29.34,9,7,19,0.09
2013-9-26,38.0,35.7,33.0,35.0,33.0,32.0,96,90,80,29.55,29.30,7,3,14,0.02
2013-9-27,53.0,41.6,35.0,33.0,30.4,28.0,84,65,39,29.26,29.11,9,6,18,0.02
2013-9-28,42.0,35.8,33.0,34.0,29.0,-99.9,92,79,68,29.26,29.20,7,4,15,0.00
2013-9-29,41.0,35.0,32.0,31.0,28.3,24.0,93,77,61,29.54,29.26,6,4,19,0.03
2013-9-30,32.0,30.4,29.0,24.0,23.0,22.0,79,74,68,29.70,29.55,7,4,17,0.01
2013-10-1,32.0,30.9,29.0,30.0,28.3,25.0,93,90,86,29.82,29.81,4,2,8,0.05
2013-10-2,43.0,35.1,29.0,29.0,27.2,25.0,88,74,56,29.82,29.77,7,4,12,0.01
2013-10-3,47.0,39.3,33.0,30.0,27.2,26.0,77,62,47,29.77,29.54,7,4,15,0.00
2013-10-4,41.0,34.8,28.0,30.0,27.4,25.0,87,74,62,29.72,29.53,7,5,13,0.00
2013-10-5,39.0,30.8,25.0,30.0,26.3,23.0,94,84,65,29.72,29.59,7,5,15,0.00
2013-10-6,39.0,34.0,28.0,27.0,25.0,23.0,93,70,57,29.58,29.56,6,4,12,0.00
2013-10-7,29.0,28.1,27.0,27.0,26.2,25.0,95,94,93,29.73,29.59,7,4,13,0.00
2013-10-8,39.0,34.7,28.0,33.0,27.2,21.0,93,75,57,29.61,28.92,14,8,26,0.08
2013-10-9,34.0,29.6,27.0,33.0,28.4,25.0,95,95,94,29.21,28.92,8,6,17,0.08
2013-10-11,40.0,34.5,31.0,34.0,31.3,29.0,92,88,80,29.74,29.71,6,4,10,0.14
2013-10-12,46.0,37.4,33.0,30.0,26.7,-99.9,85,68,52,29.72,29.64,8,6,17,0.20
2013-10-13,42.0,39.7,32.0,32.0,26.6,25.0,95,60,52,29.62,29.33,12,8,22,0.12
2013-10-14,37.0,34.4,32.0,33.0,31.8,31.0,96,90,83,29.81,29.46,8,4,19,0.23
2013-10-15,41.0,37.3,33.0,36.0,30.3,27.0,95,77,57,29.83,29.74,6,5,14,0.15
2013-10-16,47.0,43.6,40.0,40.0,35.8,32.0,94,75,56,30.00,29.83,8,4,19,0.16
2013-10-17,52.0,46.6,42.0,38.0,33.0,30.0,81,59,51,29.93,29.63,8,5,24,0.01
2013-10-18,50.0,42.9,38.0,35.0,28.2,20.0,72,56,43,29.64,29.50,9,6,20,0.01
2013-10-19,50.0,39.8,35.0,32.0,24.6,-99.9,86,57,44,29.50,29.24,11,7,23,0.00
2013-10-20,41.0,36.9,34.0,30.0,26.2,24.0,81,65,53,29.79,29.49,6,4,12,0.00
2013-10-21,38.0,32.7,28.0,29.0,25.0,22.0,85,74,56,29.99,29.80,4,3,11,0.00
2013-10-22,38.0,31.0,25.0,24.0,20.7,19.0,80,66,49,30.05,29.99,6,4,12,0.00
2013-10-23,34.0,28.1,24.0,20.0,19.6,18.0,83,70,57,30.02,29.74,6,4,14,0.00
2013-10-24,32.0,26.8,22.0,18.0,16.6,13.0,83,67,47,29.82,29.58,10,7,23,0.00
2013-10-25,38.0,32.0,25.0,24.0,19.7,17.0,81,61,51,29.99,29.61,8,4,17,0.00
2013-10-26,33.0,28.0,25.0,24.0,20.2,-99.9,86,75,62,30.35,30.02,10,4,18,0.00
2013-10-27,40.0,36.8,33.0,32.0,18.7,11.0,94,50,34,30.23,29.74,14,8,25,0.04
2013-10-28,48.0,39.2,33.0,36.0,31.8,-99.9,96,80,56,29.30,28.99,11,8,23,0.27
2013-10-29,34.0,29.8,28.0,33.0,28.5,26.0,96,95,94,29.39,29.15,10,6,24,0.02
2013-10-30,31.0,28.2,26.0,27.0,24.8,23.0,94,87,78,29.36,29.10,7,6,14,0.00
2013-10-31,31.0,26.2,21.0,27.0,22.3,18.0,91,86,80,29.51,29.16,5,2,9,0.00
2013-11-1,21.0,19.3,18.0,18.0,16.3,15.0,90,89,87,29.92,29.54,5,2,9,0.00
2013-11-2,24.0,20.0,15.0,21.0,15.4,-99.9,89,86,85,29.92,29.67,8,4,14,0.00
2013-11-3,31.0,26.6,24.0,23.0,20.8,19.0,86,79,71,29.68,29.50,8,6,14,0.00
2013-11-4,33.0,27.3,25.0,20.0,18.6,17.0,76,69,59,29.49,29.31,8,4,13,0.00
2013-11-5,25.0,17.8,13.0,18.0,14.1,9.0,88,85,73,30.00,29.36,9,6,15,0.00
2013-11-6,14.0,9.6,5.0,9.0,4.7,-1.0,84,80,74,30.11,29.97,11,5,22,0.00
2013-11-7,17.0,11.5,7.0,3.0,0.3,-1.0,76,60,50,29.78,29.72,13,8,26,0.00
2013-11-8,13.0,7.2,5.0,9.0,1.3,-3.0,85,77,53,29.97,29.79,7,5,14,0.00
2013-11-9,22.0,17.4,14.0,19.0,12.9,-99.9,90,86,85,29.90,29.55,8,6,17,0.00
2013-11-10,29.0,23.7,19.0,27.0,21.2,16.0,94,91,88,29.72,29.55,7,4,18,0.00
2013-11-11,19.0,12.1,5.0,16.0,8.2,0.0,88,84,79,30.06,29.73,5,4,12,0.00
2013-11-12,8.0,4.8,2.0,3.0,-0.2,-3.0,80,79,78,30.08,29.84,6,2,10,0.00
2013-11-13,33.0,15.4,7.0,32.0,11.9,2.0,96,86,80,29.82,29.46,17,5,42,0.09
2013-11-14,32.0,22.9,11.0,31.0,20.5,7.0,96,91,83,29.85,29.42,21,13,44,0.18
2013-11-15,10.0,6.6,4.0,6.0,1.8,-1.0,83,81,79,29.93,29.87,7,2,16,0.00
2013-11-16,7.0,4.1,-2.0,2.0,-2.5,-99.9,80,77,74,0.00,40.00,1,0,4,0.00
2013-11-17,-2.0,-5.7,-9.0,-8.0,-12.3,-16.0,75,72,70,0.00,40.00,0,0,1,0.00
2013-11-18,-2.0,-4.5,-7.0,-8.0,-11.0,-14.0,74,73,71,0.00,40.00,0,0,0,0.00
2013-11-19,-2.0,-6.1,-8.0,-9.0,-12.9,-15.0,73,72,70,0.00,40.00,0,0,0,0.00
2013-11-20,-7.0,-10.5,-16.0,-14.0,-18.0,-24.0,71,68,65,0.00,40.00,0,0,0,0.00
2013-11-21,5.0,-2.4,-6.0,-6.0,-10.9,-13.0,71,66,59,0.00,40.00,13,6,26,0.00
2013-11-22,18.0,13.8,7.0,13.0,8.1,-3.0,84,78,64,29.08,29.08,11,6,25,0.00
2013-11-23,11.0,4.9,2.0,3.0,-2.1,-99.9,80,76,65,0.00,40.00,8,5,16,0.00
2013-11-24,19.0,16.5,12.0,15.0,8.7,2.0,87,71,62,29.81,29.81,8,5,18,0.00
2013-11-25,16.0,11.4,6.0,13.0,3.4,-2.0,86,71,52,0.00,40.00,10,6,19,0.00
2013-11-26,13.0,8.8,4.0,3.0,-1.0,-3.0,77,64,49,0.00,40.00,8,2,17,0.00
2013-11-27,9.0,3.9,-5.0,3.0,-2.2,-11.0,79,75,72,0.00,40.00,8,3,15,0.00
2013-11-28,-4.0,-5.8,-8.0,-10.0,-12.5,-15.0,73,72,71,0.00,40.00,5,4,12,0.00
2013-11-29,-6.0,-7.9,-13.0,-13.0,-15.0,-21.0,71,70,67,0.00,40.00,4,1,11,0.00
2013-11-30,-7.0,-10.4,-12.0,-14.0,-19.2,-99.9,70,68,67,0.00,40.00,4,2,7,0.00
2013-12-1,-1.0,-5.7,-11.0,-7.0,-12.4,-19.0,74,72,68,0.00,40.00,5,3,8,0.00
2013-12-2,17.0,10.0,0.0,3.0,0.5,-6.0,77,66,51,0.00,40.00,7,6,13,0.00
2013-12-3,20.0,14.6,8.0,1.0,-1.0,-5.0,57,49,40,0.00,40.00,8,5,15,0.00
2013-12-4,26.0,17.9,11.0,14.0,-3.7,-99.9,71,55,45,0.00,40.00,9,5,18,0.00
2013-12-5,29.0,24.2,20.0,15.0,9.3,3.0,78,55,33,0.00,40.00,9,8,19,0.00
2013-12-6,33.0,27.0,22.0,28.0,19.0,13.0,85,72,58,0.00,40.00,7,5,14,0.00
2013-12-7,36.0,33.0,31.0,35.0,29.6,-99.9,96,91,83,0.00,40.00,7,4,16,0.24
2013-12-8,31.0,30.0,28.0,30.0,29.0,27.0,96,96,95,0.00,40.00,10,4,18,0.01
2013-12-9,28.0,27.0,26.0,27.0,25.1,24.0,95,94,93,0.00,40.00,4,2,8,0.00
2013-12-11,1.0,-1.6,-7.0,-8.0,-12.4,-18.0,66,59,55,0.00,40.00,16,12,36,0.00
2013-12-12,-6.0,-8.7,-11.0,-17.0,-20.5,-23.0,59,55,50,0.00,40.00,14,12,35,0.00
2013-12-13,-4.0,-6.9,-9.0,-15.0,-19.2,-22.0,58,54,51,0.00,40.00,13,9,26,0.00
2013-12-14,-1.0,-6.3,-13.0,-8.0,-16.0,-99.9,73,67,54,0.00,40.00,9,4,20,0.00
2013-12-15,-14.0,-17.2,-21.0,-22.0,-25.5,-30.0,67,64,62,0.00,40.00,5,2,9,0.00
2013-12-16,-19.0,-20.7,-23.0,-28.0,-29.7,-32.0,63,62,61,0.00,40.00,3,2,5,0.00
2013-12-17,-5.0,-15.5,-22.0,-12.0,-23.7,-31.0,72,65,61,0.00,40.00,4,3,10,0.00
2013-12-18,6.0,0.9,-4.0,-1.0,-5.2,-11.0,78,75,71,0.00,40.00,7,5,15,0.00
2013-12-19,10.0,7.9,7.0,-1.0,-5.1,-9.0,68,55,46,0.00,40.00,10,7,18,0.00
2013-12-20,16.0,10.1,7.0,-3.0,-5.2,-8.0,52,49,42,0.00,40.00,11,9,20,0.00
2013-12-21,18.0,13.9,10.0,15.0,5.6,-99.9,89,75,43,0.00,40.00,7,6,19,0.00
2013-12-22,18.0,8.5,1.0,15.0,4.1,-5.0,89,82,77,0.00,40.00,8,6,17,0.00
2013-12-23,0.0,-3.0,-6.0,-6.0,-9.1,-13.0,76,74,71,0.00,40.00,9,5,20,0.00
2013-12-24,-4.0,-5.2,-9.0,-10.0,-11.8,-16.0,74,72,70,0.00,40.00,3,2,6,0.00
2013-12-25,-4.0,-6.4,-9.0,-10.0,-13.1,-16.0,73,72,69,0.00,40.00,6,2,12,0.00
2013-12-26,-5.0,-9.2,-11.0,-12.0,-16.8,-19.0,72,69,66,0.00,40.00,12,7,23,0.00
2013-12-27,-1.0,-8.2,-11.0,-11.0,-18.0,-20.0,66,61,58,0.00,40.00,11,8,22,0.00
2013-12-28,11.0,6.7,1.0,3.0,-2.8,-99.9,81,68,63,0.00,40.00,9,4,17,0.00
2013-12-29,10.0,6.9,3.0,5.0,1.2,-2.0,82,77,72,0.00,40.00,10,5,20,0.00
2013-12-30,12.0,9.5,8.0,3.0,1.5,-1.0,73,69,63,0.00,40.00,10,8,19,0.00
2013-12-31,19.0,11.8,8.0,6.0,1.1,-2.0,64,62,56,0.00,40.00,11,8,24,0.00
2014-1-1,24.0,20.4,13.0,21.0,15.8,8.0,90,83,56,0.00,40.00,8,4,19,0.00
2014-1-2,17.0,6.6,2.0,14.0,0.5,-99.9,87,81,78,0.00,40.00,4,2,9,0.00